Regional Weather Roundup
Issued by NWS Binghamton, NY

Home | Current Version | Previous Version | Text Only | Print | Product List | Glossary On
Versions: 1 2 3 4 5 6 7 8 9 10 11 12 13 14 15 16 17 18 19 20 21 22 23 24 25 26 27
000
ASUS41 KBGM 240210
RWRBGM

REGIONAL WEATHER ROUNDUP
NATIONAL WEATHER SERVICE BINGHAMTON NY
900 PM EST THU NOV 23 2017

Note: "fair" indicates few or no clouds below 12,000 feet with no
significant weather and/or obstructions to visibility.

* = Station(s) that does not report precipitation, such as rain,
snow, etc, also no thunder or fog.

NYZ009-015>018-022>025-036-037-044>046-055>057-062-240300
...Central New York...

CITY           SKY/WX    TMP DP  RH WIND       PRES   REMARKS
Binghamton     CLOUDY    30  20  66 S3        29.95F
Cortland       CLOUDY    32  27  80 CALM      29.97S
Dansville      CLOUDY    35  26  69 SE3       29.98R
Elmira         CLOUDY    35  28  75 CALM      29.98S
Seneca Falls   CLOUDY    36  27  69 S7        29.99S WCI  30
Ithaca         CLOUDY    33  23  66 SE5       29.97F WCI  29
Hamilton       CLOUDY    34  23  64 CALM      29.96F
Hornell        CLOUDY    36  21  55 CALM      30.00S
Monticello     CLOUDY    29  21  72 NW3       29.99S
Penn Yan       CLOUDY    35  24  64 S5        29.96S WCI  31
Rome           CLOUDY    33  27  78 CALM      29.99S
Sidney         CLOUDY    32  21  64 CALM      29.99S
Syracuse       CLOUDY    36  24  62 S10       29.97S WCI  28
$$

PAZ038>040-043-044-047-048-072-240300
...Northeast Pennsylvania...

CITY           SKY/WX    TMP DP  RH WIND       PRES   REMARKS
Hazleton       CLEAR     23  12  63 CALM      30.00S
Scranton       CLOUDY    31  22  69 CALM      30.01R
$$
&&
KEY
WCI = Wind Chill Index
VSB = Visibility
HX  = Heat Index
$$




USA.gov is the U.S. government's official web portal to all federal, state and local government web resources and services.